Dati Storici

Data ora Umidita' aria (%) Temperatura aria (°C) Rad globale (W/m²) Gonioanemometro (°) Tacoanemometro (m/s) Pioggia (mm)
29-10-2012 14:10 52.5 % 10.608 465.834 340.022 3.405 0
29-10-2012 14:00 53.2 % 10.162 513.235 261.721 2.201 0
29-10-2012 13:50 53.1 % 10.328 373.858 43.911 5.216 0
29-10-2012 13:40 52.3 % 10.464 590.53 304.602 2.23 0
29-10-2012 13:30 52.6 % 10.535 606.78 283.249 1.562 0
29-10-2012 13:20 52.5 % 10.688 635.954 291.183 2.607 0
29-10-2012 13:10 51.8 % 10.189 559.546 210.385 2.501 0
29-10-2012 13:00 54.5 % 9.757 681.754 249.943 3.168 0
29-10-2012 12:50 57.2 % 9.061 395.795 265.886 2.275 0
29-10-2012 12:40 55.3 % 9.447 493.76 283.627 3.344 0
29-10-2012 12:30 55 % 9.364 431.51 341.672 2.074 0
29-10-2012 12:20 54.7 % 9.771 362.252 234.489 1.429 0
29-10-2012 12:10 53.3 % 9.255 491.323 283.192 2.361 0
29-10-2012 12:00 50.5 % 9.993 241.347 303.178 1.713 0
29-10-2012 11:50 51.1 % 10.018 575.349 337.762 1.621 0
29-10-2012 11:40 51 % 10.916 547.57 285.352 0.921 0
29-10-2012 11:30 50.5 % 9.704 568.089 330.342 2.45 0
29-10-2012 11:20 50.4 % 9.039 507.54 31.237 1.942 0
29-10-2012 11:10 52.4 % 9.394 502.218 344.677 1.221 0
29-10-2012 11:00 54 % 9.049 479.687 38.138 2.158 0

I dati sono presentati in modo automatico a scopo informativo. In seguito a verifica i dati possono subire modifiche o essere invalidati e non riportati negli archivi definitivi.